Simultaneous Nadir Overpasses (SNOs) Predictions

Prediction of SNOs between GOES-16 and TERRA Satellite Orbit:

Table of predicted SNOs for the next 14.0 days since TLE Epoch: 5/13/2023
Index Date Time (GOES-16) GOES-16 Lat,Lon TERRA Lat,Lon Distance(km) Time Diff (sec)
1 05/14/2023 14:51:00 0.02, -75.20 -0.88, -70.81 499.42 80
2 05/15/2023 03:11:22 -0.02, -75.20 -0.13, -75.76 63.61 80
3 05/17/2023 02:52:26 -0.02, -75.22 0.69, -71.83 385.04 80
4 05/17/2023 15:12:38 0.02, -75.23 0.36, -76.74 171.05 80
5 05/19/2023 14:59:02 0.02, -75.26 -0.49, -72.81 278.39 80
6 05/20/2023 03:19:23 -0.02, -75.26 -0.57, -77.75 284.22 80
7 05/22/2023 03:00:27 -0.02, -75.28 0.31, -73.83 165.75 80
8 05/22/2023 15:20:39 0.02, -75.30 0.72, -78.74 390.07 80
9 05/24/2023 15:07:01 0.01, -75.34 -0.07, -74.80 60.88 80
